N78AL LFRS-EIDW

Flight info

Callsign N78AL
Flight time 1h 19m
Altitude 38000
Route ERBIN DCT LUTAS DCT BAGAD DCT TERKU DCT DOLUR DCT UPCAB DCT IJALA DCT EVRIN DCT BUNED BUNED4L
Aircraft CL60/M-SADE3FGHIJ3J4J7P2RWXY/HB1D1

Departure

Time 2026-05-04 07:22
Airport Nantes Atlantique Airport (LFRS)

Arrival

Time 2026-05-04 08:41
Airport Dublin Airport (EIDW)
Time Latitude Longitude Altitude Speed Heading
2026-05-04 07:17 47.15901 -1.60363 82 ft 0 kts 27°
2026-05-04 07:19 47.15918 -1.60350 82 ft 9 kts 27°
2026-05-04 07:20 47.16014 -1.60271 83 ft 18 kts 31°
2026-05-04 07:20 47.16073 -1.60227 84 ft 9 kts 26°
2026-05-04 07:20 47.16153 -1.60165 85 ft 14 kts 28°
2026-05-04 07:20 47.16175 -1.60147 85 ft 15 kts 29°
2026-05-04 07:22 47.14706 -1.61566 693 ft 151 kts 208°
2026-05-04 07:22 47.13618 -1.62292 957 ft 180 kts 198°
2026-05-04 07:23 47.12427 -1.63064 1316 ft 190 kts 208°
2026-05-04 07:23 47.11353 -1.64246 1887 ft 201 kts 234°
2026-05-04 07:23 47.11033 -1.66235 2503 ft 207 kts 281°
2026-05-04 07:23 47.11729 -1.68032 3187 ft 208 kts 313°
2026-05-04 07:24 47.12728 -1.69583 3707 ft 211 kts 314°
2026-05-04 07:24 47.13775 -1.71213 3829 ft 225 kts 314°
2026-05-04 07:24 47.14872 -1.72939 3821 ft 238 kts 313°
2026-05-04 07:24 47.16063 -1.74836 4189 ft 266 kts 313°
2026-05-04 07:25 47.17269 -1.76792 5865 ft 260 kts 311°
2026-05-04 07:26 47.26666 -1.92886 13471 ft 343 kts 309°
2026-05-04 07:27 47.28218 -1.95570 14558 ft 348 kts 308°
2026-05-04 07:27 47.29791 -1.98294 15548 ft 355 kts 308°
2026-05-04 07:27 47.31382 -2.01053 16494 ft 361 kts 308°
2026-05-04 07:27 47.32985 -2.03940 17436 ft 365 kts 302°
2026-05-04 07:28 47.34089 -2.07299 18326 ft 365 kts 286°
2026-05-04 07:28 47.34918 -2.10815 19152 ft 370 kts 285°
2026-05-04 07:28 47.35778 -2.14439 19961 ft 376 kts 285°
2026-05-04 07:28 47.36641 -2.18074 20735 ft 381 kts 285°
2026-05-04 07:29 47.37531 -2.21827 21471 ft 387 kts 284°
2026-05-04 07:29 47.38419 -2.25570 22203 ft 391 kts 284°
2026-05-04 07:29 47.39320 -2.29377 22901 ft 395 kts 284°
2026-05-04 07:29 47.40300 -2.33212 23577 ft 403 kts 288°
2026-05-04 07:30 47.41516 -2.36965 24204 ft 410 kts 291°
2026-05-04 07:30 47.42774 -2.40753 24851 ft 413 kts 291°
2026-05-04 07:30 47.44033 -2.44555 25470 ft 417 kts 290°
2026-05-04 07:30 47.45322 -2.48454 26034 ft 421 kts 291°
2026-05-04 07:31 47.46606 -2.52346 26577 ft 425 kts 291°
2026-05-04 07:31 47.47901 -2.56275 27106 ft 428 kts 290°
2026-05-04 07:33 47.57221 -2.84749 30172 ft 450 kts 290°
2026-05-04 07:33 47.58819 -2.88811 30552 ft 460 kts 302°
2026-05-04 07:33 47.60925 -2.92380 30882 ft 466 kts 308°
2026-05-04 07:33 47.63122 -2.95944 31175 ft 468 kts 308°
2026-05-04 07:34 47.65336 -2.99552 31503 ft 470 kts 308°
2026-05-04 07:34 47.67537 -3.03143 31860 ft 470 kts 308°
2026-05-04 07:34 47.69735 -3.06735 32177 ft 471 kts 308°
2026-05-04 07:34 47.71933 -3.10331 32449 ft 472 kts 308°
2026-05-04 07:35 47.74135 -3.13940 32708 ft 473 kts 308°
2026-05-04 07:35 47.76347 -3.17570 32930 ft 475 kts 308°
2026-05-04 07:35 47.78587 -3.21251 33162 ft 476 kts 309°
2026-05-04 07:35 47.80805 -3.24900 33358 ft 477 kts 308°
2026-05-04 07:36 47.83041 -3.28585 33527 ft 478 kts 309°
2026-05-04 07:36 47.85271 -3.32263 33694 ft 479 kts 309°
2026-05-04 07:38 48.00877 -3.58141 35027 ft 475 kts 310°
2026-05-04 07:38 48.03224 -3.61515 35234 ft 476 kts 318°
2026-05-04 07:38 48.05944 -3.64495 35433 ft 478 kts 325°
2026-05-04 07:38 48.08736 -3.67173 35603 ft 477 kts 325°
2026-05-04 07:39 48.11500 -3.69827 35803 ft 476 kts 325°
2026-05-04 07:39 48.14311 -3.72531 35979 ft 475 kts 325°
2026-05-04 07:39 48.17073 -3.75190 36126 ft 475 kts 325°
2026-05-04 07:39 48.19878 -3.77894 36283 ft 474 kts 326°
2026-05-04 07:40 48.22664 -3.80583 36415 ft 474 kts 325°
2026-05-04 07:40 48.25435 -3.83261 36513 ft 475 kts 325°
2026-05-04 07:40 48.28229 -3.85964 36640 ft 475 kts 325°
2026-05-04 07:40 48.31027 -3.88675 36762 ft 475 kts 326°
2026-05-04 07:41 48.33803 -3.91367 36902 ft 474 kts 326°
2026-05-04 07:41 48.36603 -3.94087 37020 ft 474 kts 326°
2026-05-04 07:41 48.39378 -3.96786 37151 ft 473 kts 326°
2026-05-04 07:41 48.42156 -3.99491 37249 ft 473 kts 326°
2026-05-04 07:42 48.44952 -4.02216 37371 ft 473 kts 326°
2026-05-04 07:42 48.47741 -4.04939 37496 ft 472 kts 326°
2026-05-04 07:42 48.53293 -4.10370 37682 ft 472 kts 326°
2026-05-04 07:43 48.58844 -4.15814 37844 ft 472 kts 326°
2026-05-04 07:43 48.64374 -4.21252 37966 ft 473 kts 326°
2026-05-04 07:44 48.69946 -4.26746 37969 ft 474 kts 326°
2026-05-04 07:44 48.75465 -4.32200 37965 ft 473 kts 326°
2026-05-04 07:45 48.81024 -4.37711 37967 ft 472 kts 327°
2026-05-04 07:45 48.86526 -4.43178 37972 ft 472 kts 327°
2026-05-04 07:46 48.92073 -4.48705 37968 ft 472 kts 327°
2026-05-04 07:46 48.97593 -4.54221 37970 ft 472 kts 327°
2026-05-04 07:47 49.03085 -4.59722 37972 ft 471 kts 327°
2026-05-04 07:49 49.25037 -4.81861 37973 ft 470 kts 326°
2026-05-04 07:49 49.30527 -4.87435 37969 ft 470 kts 326°
2026-05-04 07:50 49.35983 -4.92990 37968 ft 470 kts 326°
2026-05-04 07:50 49.41425 -4.98545 37969 ft 469 kts 326°
2026-05-04 07:51 49.46895 -5.04145 37970 ft 470 kts 326°
2026-05-04 07:51 49.52555 -5.09352 37967 ft 470 kts 331°
2026-05-04 07:52 49.58260 -5.14264 37968 ft 470 kts 331°
2026-05-04 07:52 49.64011 -5.19237 37965 ft 469 kts 331°
2026-05-04 07:54 49.86801 -5.39103 37962 ft 468 kts 331°
2026-05-04 07:55 49.92468 -5.44080 37960 ft 468 kts 331°
2026-05-04 07:55 49.98139 -5.49075 37963 ft 467 kts 331°
2026-05-04 07:56 50.03778 -5.54055 37955 ft 466 kts 331°
2026-05-04 07:56 50.09433 -5.59065 37963 ft 467 kts 331°
2026-05-04 07:57 50.15073 -5.64075 37959 ft 467 kts 331°
2026-05-04 07:57 50.20735 -5.69119 37955 ft 467 kts 330°
2026-05-04 07:58 50.26351 -5.74136 37957 ft 466 kts 331°
2026-05-04 07:58 50.31984 -5.79181 37958 ft 465 kts 331°
2026-05-04 07:59 50.37600 -5.84226 37963 ft 465 kts 331°
2026-05-04 07:59 50.43200 -5.89271 37960 ft 464 kts 331°
2026-05-04 08:00 50.48779 -5.94310 37964 ft 464 kts 331°
2026-05-04 08:02 50.71182 -6.14687 37975 ft 463 kts 331°
2026-05-04 08:02 50.76752 -6.19789 37972 ft 462 kts 331°
2026-05-04 08:03 50.82359 -6.24939 37986 ft 462 kts 331°
2026-05-04 08:03 50.87965 -6.29911 37983 ft 461 kts 336°
2026-05-04 08:04 50.94054 -6.32998 37987 ft 459 kts 351°
2026-05-04 08:04 51.00324 -6.34840 37993 ft 459 kts 351°
2026-05-04 08:05 51.06623 -6.36696 37989 ft 458 kts 351°
2026-05-04 08:05 51.12872 -6.38543 37988 ft 458 kts 351°
2026-05-04 08:06 51.19143 -6.40403 38001 ft 457 kts 351°
2026-05-04 08:06 51.25406 -6.42266 38005 ft 457 kts 351°
2026-05-04 08:08 51.46643 -6.47938 38000 ft 431 kts 353°
2026-05-04 08:08 51.49594 -6.48712 38001 ft 431 kts 353°
2026-05-04 08:10 51.73515 -6.55030 36762 ft 435 kts 354°
2026-05-04 08:11 51.76500 -6.55823 36257 ft 434 kts 355°
2026-05-04 08:11 51.82416 -6.56672 35156 ft 428 kts
2026-05-04 08:11 51.85401 -6.56895 34567 ft 427 kts
2026-05-04 08:12 51.88374 -6.57121 33971 ft 425 kts
2026-05-04 08:12 51.91319 -6.57347 33341 ft 422 kts
2026-05-04 08:12 51.94266 -6.57575 32725 ft 418 kts
2026-05-04 08:12 51.97146 -6.57798 32150 ft 412 kts
2026-05-04 08:13 52.00001 -6.58022 31591 ft 407 kts
2026-05-04 08:13 52.02805 -6.58242 31053 ft 401 kts
2026-05-04 08:13 52.05589 -6.58461 30520 ft 395 kts
2026-05-04 08:13 52.08300 -6.58675 30002 ft 388 kts
2026-05-04 08:14 52.10984 -6.58887 29490 ft 382 kts
2026-05-04 08:14 52.13662 -6.59098 28980 ft 377 kts
2026-05-04 08:14 52.16253 -6.59302 28482 ft 372 kts
2026-05-04 08:16 52.33613 -6.60677 25174 ft 342 kts
2026-05-04 08:16 52.35973 -6.60864 24717 ft 338 kts
2026-05-04 08:16 52.38336 -6.61052 24277 ft 335 kts
2026-05-04 08:17 52.40645 -6.61236 23822 ft 332 kts
2026-05-04 08:17 52.42965 -6.61421 23385 ft 328 kts
2026-05-04 08:17 52.45213 -6.61601 22959 ft 324 kts
2026-05-04 08:17 52.47489 -6.61783 22527 ft 324 kts
2026-05-04 08:19 52.63206 -6.63046 19519 ft 318 kts
2026-05-04 08:19 52.65454 -6.63227 19090 ft 316 kts
2026-05-04 08:20 52.67641 -6.63405 18671 ft 316 kts
2026-05-04 08:20 52.69850 -6.63584 18244 ft 315 kts
2026-05-04 08:20 52.72020 -6.63760 17833 ft 314 kts
2026-05-04 08:20 52.74202 -6.63937 17409 ft 312 kts
2026-05-04 08:21 52.76374 -6.64115 17001 ft 310 kts
2026-05-04 08:21 52.78538 -6.64291 16584 ft 309 kts
2026-05-04 08:21 52.80659 -6.64465 16182 ft 306 kts
2026-05-04 08:21 52.82828 -6.64642 15762 ft 305 kts 360°
2026-05-04 08:22 52.84921 -6.64814 15363 ft 301 kts 360°
2026-05-04 08:22 52.86998 -6.64984 14967 ft 297 kts 359°
2026-05-04 08:24 53.00760 -6.64566 12272 ft 267 kts 34°
2026-05-04 08:24 53.02104 -6.62455 11891 ft 264 kts 49°
2026-05-04 08:24 53.03244 -6.60138 11513 ft 260 kts 50°
2026-05-04 08:24 53.04384 -6.57830 11221 ft 250 kts 50°
2026-05-04 08:25 53.05483 -6.55606 10865 ft 242 kts 50°
2026-05-04 08:25 53.06556 -6.53437 10544 ft 244 kts 49°
2026-05-04 08:25 53.07638 -6.51246 10212 ft 244 kts 49°
2026-05-04 08:25 53.08715 -6.49065 9896 ft 244 kts 49°
2026-05-04 08:26 53.09899 -6.47071 9564 ft 241 kts 35°
2026-05-04 08:27 53.20276 -6.52621 7167 ft 241 kts 298°
2026-05-04 08:28 53.20643 -6.55339 7054 ft 244 kts 273°
2026-05-04 08:28 53.20302 -6.58149 7059 ft 248 kts 252°
2026-05-04 08:28 53.19684 -6.60850 7062 ft 247 kts 250°
2026-05-04 08:28 53.19070 -6.63544 7062 ft 247 kts 251°
2026-05-04 08:29 53.18515 -6.66251 7062 ft 246 kts 259°
2026-05-04 08:29 53.18550 -6.69079 7062 ft 244 kts 282°
2026-05-04 08:29 53.18861 -6.71844 7065 ft 243 kts 282°
2026-05-04 08:31 53.23432 -6.89261 7068 ft 237 kts 314°
2026-05-04 08:33 53.31720 -6.81904 6042 ft 232 kts 55°
2026-05-04 08:33 53.32608 -6.79635 5862 ft 231 kts 55°
2026-05-04 08:35 53.40585 -6.68931 4643 ft 221 kts
2026-05-04 08:35 53.42117 -6.68696 4479 ft 221 kts
2026-05-04 08:35 53.43624 -6.68227 4312 ft 221 kts 18°
2026-05-04 08:35 53.44873 -6.66850 4110 ft 208 kts 46°
2026-05-04 08:37 53.45094 -6.53778 3267 ft 188 kts 91°
2026-05-04 08:37 53.44971 -6.51574 3020 ft 186 kts 91°
2026-05-04 08:37 53.44856 -6.49411 2770 ft 185 kts 91°
2026-05-04 08:38 53.44741 -6.47239 2522 ft 184 kts 91°
2026-05-04 08:38 53.44630 -6.45148 2266 ft 174 kts 91°
2026-05-04 08:38 53.44525 -6.43254 2073 ft 159 kts 90°
2026-05-04 08:40 53.43914 -6.31747 716 ft 130 kts 91°
2026-05-04 08:40 53.43832 -6.30229 549 ft 130 kts 92°
2026-05-04 08:40 53.43751 -6.28706 388 ft 124 kts 90°
2026-05-04 08:41 53.43678 -6.27327 238 ft 111 kts 90°
2026-05-04 08:41 53.43627 -6.26225 219 ft 67 kts 96°
2026-05-04 08:41 53.43583 -6.25633 210 ft 44 kts 98°
2026-05-04 08:41 53.43534 -6.25262 206 ft 23 kts 117°
2026-05-04 08:42 53.43462 -6.25035 206 ft 16 kts 121°
2026-05-04 08:42 53.43434 -6.24986 206 ft 2 kts 145°
2026-05-04 08:42 53.43420 -6.24981 206 ft 0 kts 193°
2026-05-04 08:42 53.43404 -6.24998 206 ft 0 kts 223°
2026-05-04 08:43 53.43398 -6.25001 206 ft 2 kts 182°
2026-05-04 08:43 53.43380 -6.24948 206 ft 10 kts 111°
2026-05-04 08:43 53.43364 -6.24784 206 ft 16 kts 94°
2026-05-04 08:43 53.43351 -6.24554 208 ft 16 kts 98°
2026-05-04 08:44 53.43310 -6.24411 212 ft 10 kts 174°
2026-05-04 08:44 53.43236 -6.24413 215 ft 11 kts 190°
2026-05-04 08:46 53.43119 -6.24481 215 ft 0 kts 188°